| time (UTC) | temp F | wind direction | speed MPH | gust MPH | rain 1hr in | rain 24hr in | rain mn in | humidity % | barometer mb |
| 20260507145204 | 52 | 341 | 1.0 | 10.0 | 0.00 | 0.84 | 0.24 | 76 | 999.9 |
| 20260507144204 | 51 | 289 | 4.0 | 9.0 | 0.00 | 0.84 | 0.24 | 76 | 999.9 |
| 20260507143204 | 50 | 23 | 2.0 | 9.0 | 0.00 | 0.84 | 0.24 | 83 | 999.9 |
| 20260507142203 | 49 | 309 | 4.0 | 9.0 | 0.00 | 0.84 | 0.24 | 82 | 1000.3 |
| 20260507141225 | 48 | 249 | 4.0 | 12.0 | 0.00 | 0.84 | 0.24 | 83 | 1000.1 |
| 20260507140203 | 48 | 252 | 2.0 | 7.0 | 0.00 | 0.84 | 0.24 | 84 | 1000.1 |
| 20260507135204 | 48 | 231 | 4.0 | 9.0 | 0.00 | 0.84 | 0.24 | 82 | 1000.4 |
| 20260507134225 | 48 | 287 | 3.0 | 9.0 | 0.00 | 0.84 | 0.24 | 82 | 1000.3 |
| 20260507133225 | 48 | 310 | 3.0 | 9.0 | 0.00 | 0.84 | 0.24 | 84 | 1000.3 |
| 20260507132204 | 47 | 283 | 3.0 | 7.0 | 0.00 | 0.84 | 0.24 | 85 | 1000.3 |
| 20260507131203 | 47 | 295 | 1.0 | 10.0 | 0.00 | 0.84 | 0.24 | 84 | 1000.2 |
| 20260507130204 | 47 | 307 | 2.0 | 7.0 | 0.00 | 0.84 | 0.24 | 88 | 1000.2 |
| 20260507125203 | 47 | 339 | 2.0 | 7.0 | 0.00 | 0.84 | 0.24 | 87 | 1000.5 |
| 20260507124203 | 47 | 282 | 3.0 | 6.0 | 0.00 | 0.84 | 0.24 | 89 | 1000.5 |
| 20260507123203 | 46 | 301 | 4.0 | 10.0 | 0.00 | 0.84 | 0.24 | 90 | 1000.5 |
| 20260507122203 | 46 | 260 | 1.0 | 10.0 | 0.00 | 0.84 | 0.24 | 95 | 1000.4 |
| 20260507121202 | 45 | 289 | 3.0 | 9.0 | 0.00 | 0.84 | 0.24 | 95 | 1000.3 |
| 20260507120203 | 45 | 275 | 6.0 | 11.0 | 0.00 | 0.84 | 0.24 | 96 | 1000.3 |
| 20260507115203 | 44 | 295 | 3.0 | 7.0 | 0.02 | 0.84 | 0.24 | 95 | 1000.5 |
| 20260507114205 | 44 | 276 | 2.0 | 6.0 | 0.02 | 0.84 | 0.24 | 95 | 1000.5 |
| 20260507113205 | 44 | 233 | 2.0 | 6.0 | 0.01 | 0.83 | 0.23 | 95 | 1000.5 |
| 20260507112204 | 44 | 267 | 1.0 | 6.0 | 0.01 | 0.83 | 0.23 | 96 | 1000.5 |
| 20260507111205 | 43 | 286 | 2.0 | 9.0 | 0.00 | 0.82 | 0.22 | 96 | 1000.1 |
| 20260507105247 | 43 | 286 | 3.0 | 8.0 | 0.02 | 0.82 | 0.22 | 96 | 1000.3 |
| 20260507104205 | 43 | 279 | 3.0 | 6.0 | 0.01 | 0.81 | 0.21 | 96 | 1000.0 |
| 20260507103246 | 42 | 311 | 1.0 | 10.0 | 0.01 | 0.81 | 0.21 | 95 | 1000.0 |
| 20260507102205 | 42 | 276 | 1.0 | 6.0 | 0.00 | 0.80 | 0.20 | 95 | 999.9 |
| 20260507101204 | 42 | 286 | 1.0 | 4.0 | 0.00 | 0.80 | 0.20 | 95 | 1000.0 |
| 20260507100204 | 42 | 278 | 2.0 | 7.0 | 0.00 | 0.81 | 0.20 | 95 | 1000.0 |
| 20260507095204 | 43 | 278 | 3.0 | 8.0 | 0.02 | 0.80 | 0.19 | 95 | 999.5 |
| 20260507094204 | 43 | 273 | 0.0 | 6.0 | 0.02 | 0.80 | 0.19 | 94 | 999.7 |
| 20260507093204 | 43 | 284 | 1.0 | 4.0 | 0.01 | 0.80 | 0.18 | 94 | 999.7 |
| 20260507092204 | 43 | 281 | 3.0 | 7.0 | 0.01 | 0.81 | 0.18 | 94 | 999.9 |
| 20260507091203 | 43 | 271 | 3.0 | 12.0 | 0.00 | 0.81 | 0.17 | 94 | 999.6 |
| 20260507090204 | 43 | 289 | 2.0 | 11.0 | 0.00 | 0.81 | 0.17 | 94 | 999.6 |
| 20260507085203 | 44 | 294 | 5.0 | 12.0 | 0.02 | 0.80 | 0.16 | 95 | 999.4 |
| 20260507084204 | 44 | 272 | 2.0 | 9.0 | 0.02 | 0.80 | 0.16 | 96 | 999.5 |
| 20260507083203 | 44 | 285 | 4.0 | 12.0 | 0.02 | 0.80 | 0.16 | 96 | 999.5 |
| 20260507082204 | 44 | 293 | 0.0 | 4.0 | 0.01 | 0.80 | 0.15 | 96 | 999.5 |
| 20260507081203 | 44 | 293 | 1.0 | 5.0 | 0.00 | 0.80 | 0.14 | 96 | 999.5 |
| 20260507080203 | 44 | 276 | 3.0 | 9.0 | 0.00 | 0.80 | 0.14 | 96 | 999.5 |
| 20260507075202 | 44 | 301 | 3.0 | 9.0 | 0.03 | 0.81 | 0.14 | 96 | 999.0 |
| 20260507074203 | 45 | 322 | 1.0 | 7.0 | 0.02 | 0.81 | 0.13 | 96 | 998.9 |
| 20260507072204 | 45 | 356 | 5.0 | 10.0 | 0.01 | 0.81 | 0.12 | 96 | 998.9 |
| 20260507071204 | 45 | 301 | 3.0 | 10.0 | 0.00 | 0.81 | 0.11 | 96 | 998.6 |
| 20260507070204 | 45 | 295 | 1.0 | 10.0 | 0.00 | 0.81 | 0.11 | 96 | 998.6 |
| 20260507065205 | 45 | 0 | 5.0 | 10.0 | 0.03 | 0.80 | 0.10 | 96 | 998.4 |
| 20260507064204 | 45 | 6 | 4.0 | 9.0 | 0.03 | 0.80 | 0.10 | 96 | 998.9 |
| 20260507063204 | 46 | 327 | 1.0 | 9.0 | 0.02 | 0.79 | 0.09 | 96 | 998.9 |
| 20260507062225 | 46 | 327 | 3.0 | 11.0 | 0.01 | 0.78 | 0.08 | 96 | 998.8 |
| 20260507061204 | 46 | 358 | 6.0 | 11.0 | 0.01 | 0.78 | 0.08 | 97 | 998.8 |
| 20260507055204 | 46 | 322 | 3.0 | 12.0 | 0.04 | 0.77 | 0.07 | 97 | 998.9 |
| 20260507054203 | 46 | 313 | 3.0 | 12.0 | 0.03 | 0.76 | 0.06 | 97 | 999.3 |
| 20260507053204 | 46 | 299 | 0.0 | 12.0 | 0.02 | 0.75 | 0.05 | 97 | 999.3 |
| 20260507052224 | 47 | 309 | 4.0 | 12.0 | 0.02 | 0.75 | 0.05 | 98 | 999.1 |
| 20260507051204 | 47 | 293 | 1.0 | 9.0 | 0.01 | 0.74 | 0.04 | 98 | 999.4 |
| 20260507050203 | 47 | 307 | 5.0 | 11.0 | 0.01 | 0.74 | 0.04 | 98 | 999.4 |
| 20260507045224 | 47 | 279 | 3.0 | 6.0 | 0.03 | 0.73 | 0.03 | 98 | 998.9 |
| 20260507044203 | 47 | 341 | 3.0 | 8.0 | 0.02 | 0.72 | 0.02 | 97 | 998.6 |
| 20260507043203 | 47 | 16 | 3.0 | 9.0 | 0.02 | 0.72 | 0.02 | 97 | 998.6 |
| 20260507042202 | 47 | 345 | 5.0 | 13.0 | 0.01 | 0.71 | 0.01 | 97 | 998.6 |
| 20260507041203 | 47 | 5 | 6.0 | 13.0 | 0.00 | 0.70 | 0.00 | 97 | 998.8 |
| 20260507035203 | 47 | 8 | 7.0 | 13.0 | 0.03 | 0.70 | 0.70 | 96 | 999.0 |
| 20260507034203 | 48 | 2 | 7.0 | 12.0 | 0.03 | 0.70 | 0.70 | 96 | 999.4 |
| 20260507033224 | 48 | 359 | 6.0 | 12.0 | 0.02 | 0.69 | 0.69 | 95 | 999.4 |
| 20260507032202 | 49 | 350 | 7.0 | 12.0 | 0.02 | 0.69 | 0.69 | 94 | 999.8 |
| 20260507031205 | 50 | 348 | 5.0 | 10.0 | 0.01 | 0.68 | 0.68 | 93 | 999.8 |
| 20260507030205 | 51 | 350 | 4.0 | 11.0 | 0.00 | 0.67 | 0.67 | 91 | 999.8 |
| 20260507025205 | 53 | 347 | 6.0 | 12.0 | 0.04 | 0.67 | 0.67 | 97 | 999.9 |
| 20260507024226 | 54 | 209 | 0.0 | 6.0 | 0.03 | 0.66 | 0.66 | 98 | 1000.1 |
| 20260507023204 | 54 | 195 | 2.0 | 9.0 | 0.02 | 0.65 | 0.65 | 98 | 1000.1 |
| 20260507022205 | 54 | 184 | 4.0 | 16.0 | 0.02 | 0.65 | 0.65 | 98 | 1000.2 |
| 20260507021204 | 54 | 177 | 5.0 | 12.0 | 0.01 | 0.64 | 0.64 | 98 | 1000.5 |
| 20260507020225 | 54 | 181 | 5.0 | 12.0 | 0.00 | 0.63 | 0.63 | 98 | 1000.5 |
| 20260507015205 | 54 | 172 | 7.0 | 14.0 | 0.04 | 0.63 | 0.63 | 98 | 1000.7 |
| 20260507014204 | 54 | 164 | 4.0 | 11.0 | 0.03 | 0.62 | 0.62 | 98 | 1000.9 |
| 20260507013225 | 54 | 167 | 3.0 | 7.0 | 0.02 | 0.61 | 0.61 | 98 | 1000.9 |
| 20260507012204 | 54 | 165 | 0.0 | 10.0 | 0.02 | 0.61 | 0.61 | 98 | 1001.2 |
| 20260507011204 | 54 | 168 | 1.0 | 7.0 | 0.01 | 0.61 | 0.60 | 98 | 1000.9 |
| 20260507010203 | 54 | 165 | 2.0 | 5.0 | 0.00 | 0.60 | 0.59 | 98 | 1000.9 |
| 20260507005204 | 54 | 168 | 2.0 | 6.0 | 0.04 | 0.59 | 0.58 | 98 | 1001.2 |
| 20260507003204 | 54 | 152 | 3.0 | 8.0 | 0.03 | 0.59 | 0.57 | 98 | 1001.3 |
| 20260507002203 | 54 | 184 | 4.0 | 13.0 | 0.02 | 0.58 | 0.56 | 98 | 1001.3 |
| 20260507000205 | 54 | 189 | 4.0 | 12.0 | 0.00 | 0.58 | 0.54 | 98 | 1001.4 |
| 20260506235203 | 54 | 162 | 3.0 | 9.0 | 0.05 | 0.57 | 0.53 | 98 | 1001.7 |
| 20260506234203 | 54 | 178 | 5.0 | 11.0 | 0.04 | 0.56 | 0.52 | 98 | 1001.9 |
| 20260506233224 | 54 | 162 | 6.0 | 10.0 | 0.03 | 0.55 | 0.51 | 98 | 1001.9 |
| 20260506232223 | 54 | 178 | 5.0 | 11.0 | 0.02 | 0.55 | 0.50 | 98 | 1001.8 |
| 20260506231203 | 54 | 172 | 5.0 | 11.0 | 0.01 | 0.54 | 0.49 | 98 | 1001.5 |
| 20260506224203 | 54 | 183 | 6.0 | 15.0 | 0.05 | 0.52 | 0.46 | 98 | 1001.5 |
| 20260506222203 | 55 | 184 | 7.0 | 12.0 | 0.03 | 0.50 | 0.44 | 98 | 1001.7 |
| 20260506221202 | 55 | 169 | 6.0 | 14.0 | 0.02 | 0.50 | 0.43 | 98 | 1001.5 |
| 20260506215204 | 55 | 156 | 9.0 | 14.0 | 0.06 | 0.49 | 0.40 | 99 | 1001.5 |
| 20260506214205 | 55 | 158 | 8.0 | 16.0 | 0.05 | 0.48 | 0.39 | 99 | 1001.7 |
| 20260506213204 | 55 | 190 | 5.0 | 14.0 | 0.04 | 0.47 | 0.38 | 99 | 1001.7 |
| 20260506212205 | 55 | 152 | 4.0 | 9.0 | 0.03 | 0.46 | 0.37 | 99 | 1001.9 |
| 20260506211204 | 55 | 182 | 1.0 | 11.0 | 0.01 | 0.44 | 0.35 | 99 | 1002.4 |
| 20260506210204 | 55 | 170 | 8.0 | 15.0 | 0.00 | 0.43 | 0.34 | 99 | 1002.4 |
| 20260506205205 | 55 | 154 | 4.0 | 9.0 | 0.07 | 0.42 | 0.33 | 99 | 1001.9 |
| 20260506204204 | 54 | 155 | 1.0 | 4.0 | 0.05 | 0.40 | 0.31 | 99 | 1002.0 |
| 20260506202204 | 54 | 164 | 0.0 | 3.0 | 0.03 | 0.38 | 0.29 | 99 | 1002.4 |
| 20260506201204 | 54 | 164 | 1.0 | 3.0 | 0.02 | 0.37 | 0.28 | 99 | 1002.4 |
| 20260506200204 | 54 | 165 | 1.0 | 3.0 | 0.01 | 0.36 | 0.27 | 99 | 1002.4 |
| 20260506195203 | 53 | 175 | 0.0 | 5.0 | 0.05 | 0.34 | 0.25 | 99 | 1003.0 |
| 20260506194204 | 53 | 59 | 0.0 | 4.0 | 0.04 | 0.33 | 0.24 | 98 | 1003.0 |
| 20260506193224 | 53 | 46 | 0.0 | 3.0 | 0.03 | 0.32 | 0.23 | 98 | 1003.0 |
| 20260506192246 | 53 | 46 | 0.0 | 0.0 | 0.02 | 0.31 | 0.22 | 98 | 1003.0 |
| 20260506191204 | 52 | 46 | 0.0 | 4.0 | 0.01 | 0.30 | 0.21 | 98 | 1002.9 |
| 20260506190224 | 52 | 44 | 0.0 | 3.0 | 0.00 | 0.29 | 0.20 | 97 | 1002.9 |
| 20260506185203 | 52 | 44 | 2.0 | 5.0 | 0.04 | 0.28 | 0.19 | 96 | 1003.2 |
| 20260506184204 | 52 | 36 | 4.0 | 6.0 | 0.04 | 0.28 | 0.19 | 96 | 1003.3 |
| 20260506183203 | 52 | 26 | 3.0 | 7.0 | 0.03 | 0.27 | 0.18 | 95 | 1003.3 |
| 20260506182204 | 52 | 44 | 5.0 | 9.0 | 0.02 | 0.26 | 0.17 | 95 | 1003.8 |
| 20260506181203 | 52 | 95 | 1.0 | 5.0 | 0.02 | 0.26 | 0.17 | 94 | 1004.3 |
| 20260506180203 | 53 | 100 | 0.0 | 4.0 | 0.00 | 0.24 | 0.15 | 93 | 1004.3 |
| 20260506175202 | 53 | 100 | 2.0 | 5.0 | 0.04 | 0.24 | 0.15 | 93 | 1004.4 |
| 20260506174205 | 53 | 105 | 1.0 | 4.0 | 0.03 | 0.23 | 0.14 | 94 | 1004.5 |
| 20260506173226 | 53 | 105 | 0.0 | 1.0 | 0.02 | 0.22 | 0.13 | 93 | 1004.5 |
| 20260506172204 | 53 | 105 | 0.0 | 0.0 | 0.01 | 0.21 | 0.12 | 91 | 1004.6 |
| 20260506171226 | 53 | 105 | 0.0 | 2.0 | 0.00 | 0.20 | 0.11 | 90 | 1004.7 |
| 20260506170205 | 53 | 105 | 1.0 | 2.0 | 0.00 | 0.20 | 0.11 | 90 | 1004.7 |
| 20260506165204 | 53 | 105 | 0.0 | 0.0 | 0.00 | 0.19 | 0.10 | 86 | 1005.1 |
| 20260506164205 | 53 | 105 | 0.0 | 0.0 | 0.00 | 0.19 | 0.10 | 84 | 1005.0 |
| 20260506163204 | 53 | 105 | 0.0 | 0.0 | 0.00 | 0.19 | 0.10 | 84 | 1005.0 |
| 20260506162204 | 53 | 105 | 0.0 | 3.0 | 0.00 | 0.19 | 0.10 | 83 | 1005.0 |
| 20260506161203 | 53 | 105 | 0.0 | 2.0 | 0.00 | 0.19 | 0.10 | 82 | 1005.2 |
| 20260506160204 | 53 | 105 | 0.0 | 4.0 | 0.00 | 0.19 | 0.10 | 83 | 1005.2 |
| 20260506155225 | 53 | 111 | 2.0 | 6.0 | 0.00 | 0.19 | 0.10 | 86 | 1005.4 |
| 20260506154204 | 54 | 174 | 2.0 | 4.0 | 0.00 | 0.19 | 0.10 | 84 | 1005.6 |
| 20260506153204 | 54 | 188 | 0.0 | 3.0 | 0.00 | 0.19 | 0.10 | 83 | 1005.6 |
| 20260506152204 | 54 | 194 | 0.0 | 0.0 | 0.00 | 0.19 | 0.10 | 83 | 1005.8 |
| 20260506151204 | 54 | 194 | 0.0 | 0.0 | 0.00 | 0.19 | 0.10 | 82 | 1006.1 |
| 20260506150245 | 54 | 194 | 0.0 | 0.0 | 0.00 | 0.19 | 0.10 | 82 | 1006.1 |